Location: D�pe
(52.6057°N, 8.1808°E)
Time: 07:21:01
(UTC+00:00)

COSMO-SKYMED 1 - Pass Details

Date: 29 October 2020
Orbit: 621 x 623 km, 97.9° (Epoch: 01 December)

Event Time Altitude Azimuth Distance (km) Brightness Sun altitude
Rises 18:36:07 0° 8° (N) 2,919 6.0 -23.8°
Reaches altitude 10° 18:38:27 10° 360° (N) 2,007 5.3 -24.1°
Maximum altitude 18:42:23 35° 295° (WNW) 1,024 4.2 -24.7°
Drops below altitude 10° 18:46:19 10° 230° (SW) 1,993 5.6 -25.3°
Sets 18:48:38 0° 221° (SW) 2,894 6.4 -25.7°
